| time (UTC) | temp F | wind direction | speed MPH | gust MPH | rain 1hr in | rain 24hr in | rain mn in | humidity % | barometer mb |
| 20260504173332 | 70 | 270 | 5.0 | 0.0 | 0.00 | 0.00 | 0.00 | 31 | 1015.0 |
| 20260504171832 | 75 | 270 | 5.0 | 0.0 | 0.00 | 0.00 | 0.00 | 25 | 1015.0 |
| 20260504170332 | 75 | 270 | 5.0 | 0.0 | 0.00 | 0.00 | 0.00 | 25 | 1015.0 |
| 20260504160333 | 79 | 310 | 6.0 | 0.0 | 0.00 | 0.00 | 0.00 | 18 | 1015.0 |
| 20260504150332 | 79 | 260 | 5.0 | 0.0 | 0.00 | 0.00 | 0.00 | 18 | 1015.0 |
| 20260504140333 | 79 | 340 | 7.0 | 0.0 | 0.00 | 0.00 | 0.00 | 18 | 1016.0 |
| 20260504130332 | 77 | 3.0 | 0.0 | 0.00 | 0.00 | 0.00 | 21 | 1017.0 | |
| 20260504110333 | 75 | 30 | 6.0 | 0.0 | 0.00 | 0.00 | 0.00 | 24 | 1018.0 |
| 20260504100332 | 73 | 290 | 5.0 | 0.0 | 0.00 | 0.00 | 0.00 | 27 | 1019.0 |
| 20260504081832 | 66 | 330 | 5.0 | 0.0 | 0.00 | 0.00 | 0.00 | 35 | 1020.0 |
| 20260504080332 | 66 | 330 | 5.0 | 0.0 | 0.00 | 0.00 | 0.00 | 35 | 1020.0 |
| 20260504070333 | 63 | 1.0 | 0.0 | 0.00 | 0.00 | 0.00 | 45 | 1020.0 | |
| 20260504050342 | 50 | 1.0 | 0.0 | 0.00 | 0.00 | 0.00 | 62 | 1020.0 | |
| 20260504044832 | 46 | 190 | 5.0 | 0.0 | 0.00 | 0.00 | 0.00 | 71 | 1019.0 |
| 20260504043332 | 46 | 190 | 5.0 | 0.0 | 0.00 | 0.00 | 0.00 | 71 | 1019.0 |
| 20260504041832 | 43 | 210 | 5.0 | 0.0 | 0.00 | 0.00 | 0.00 | 76 | 1019.0 |
| 20260504040332 | 43 | 210 | 5.0 | 0.0 | 0.00 | 0.00 | 0.00 | 76 | 1019.0 |
| 20260504034833 | 41 | 210 | 3.0 | 0.0 | 0.00 | 0.00 | 0.00 | 76 | 1019.0 |
| 20260504033332 | 41 | 210 | 3.0 | 0.0 | 0.00 | 0.00 | 0.00 | 76 | 1019.0 |
| 20260504031832 | 39 | 210 | 3.0 | 0.0 | 0.00 | 0.00 | 0.00 | 81 | 1019.0 |
| 20260504030452 | 39 | 210 | 3.0 | 0.0 | 0.00 | 0.00 | 0.00 | 81 | 1019.0 |
| 20260504024833 | 39 | 180 | 3.0 | 0.0 | 0.00 | 0.00 | 0.00 | 81 | 1019.0 |
| 20260504023332 | 39 | 180 | 3.0 | 0.0 | 0.00 | 0.00 | 0.00 | 81 | 1019.0 |
| 20260504021832 | 41 | 170 | 3.0 | 0.0 | 0.00 | 0.00 | 0.00 | 76 | 1019.0 |
| 20260504020332 | 41 | 170 | 3.0 | 0.0 | 0.00 | 0.00 | 0.00 | 76 | 1019.0 |
| 20260504014832 | 43 | 0 | 0.0 | 0.0 | 0.00 | 0.00 | 0.00 | 71 | 1019.0 |
| 20260504013337 | 43 | 0 | 0.0 | 0.0 | 0.00 | 0.00 | 0.00 | 71 | 1019.0 |
| 20260504011951 | 46 | 210 | 6.0 | 0.0 | 0.00 | 0.00 | 0.00 | 66 | 1019.0 |
| 20260504010332 | 46 | 210 | 6.0 | 0.0 | 0.00 | 0.00 | 0.00 | 66 | 1019.0 |
| 20260504004951 | 46 | 210 | 6.0 | 0.0 | 0.00 | 0.00 | 0.00 | 66 | 1019.0 |
| 20260504003332 | 46 | 210 | 6.0 | 0.0 | 0.00 | 0.00 | 0.00 | 66 | 1019.0 |
| 20260504001832 | 45 | 200 | 5.0 | 0.0 | 0.00 | 0.00 | 0.00 | 71 | 1019.0 |
| 20260504000333 | 45 | 200 | 5.0 | 0.0 | 0.00 | 0.00 | 0.00 | 71 | 1019.0 |
| 20260503234912 | 46 | 210 | 6.0 | 0.0 | 0.00 | 0.00 | 0.00 | 66 | 1019.0 |
| 20260503233332 | 46 | 210 | 6.0 | 0.0 | 0.00 | 0.00 | 0.00 | 66 | 1019.0 |
| 20260503231836 | 46 | 190 | 3.0 | 0.0 | 0.00 | 0.00 | 0.00 | 66 | 1019.0 |
| 20260503230344 | 46 | 190 | 3.0 | 0.0 | 0.00 | 0.00 | 0.00 | 66 | 1019.0 |
| 20260503224832 | 46 | 180 | 5.0 | 0.0 | 0.00 | 0.00 | 0.00 | 66 | 1019.0 |
| 20260503223344 | 46 | 180 | 5.0 | 0.0 | 0.00 | 0.00 | 0.00 | 66 | 1019.0 |
| 20260503221849 | 48 | 200 | 7.0 | 0.0 | 0.00 | 0.00 | 0.00 | 66 | 1019.0 |
| 20260503220414 | 48 | 200 | 7.0 | 0.0 | 0.00 | 0.00 | 0.00 | 66 | 1019.0 |
| 20260503214839 | 48 | 210 | 3.0 | 0.0 | 0.00 | 0.00 | 0.00 | 66 | 1019.0 |
| 20260503213332 | 48 | 210 | 3.0 | 0.0 | 0.00 | 0.00 | 0.00 | 66 | 1019.0 |
| 20260503211833 | 52 | 220 | 6.0 | 0.0 | 0.00 | 0.00 | 0.00 | 58 | 1018.0 |
| 20260503210332 | 52 | 220 | 6.0 | 0.0 | 0.00 | 0.00 | 0.00 | 58 | 1018.0 |
| 20260503204839 | 54 | 210 | 7.0 | 0.0 | 0.00 | 0.00 | 0.00 | 54 | 1018.0 |
| 20260503203451 | 54 | 210 | 7.0 | 0.0 | 0.00 | 0.00 | 0.00 | 54 | 1018.0 |
| 20260503201832 | 54 | 200 | 7.0 | 0.0 | 0.00 | 0.00 | 0.00 | 54 | 1018.0 |
| 20260503200342 | 54 | 200 | 7.0 | 0.0 | 0.00 | 0.00 | 0.00 | 54 | 1018.0 |
| 20260503194858 | 54 | 210 | 6.0 | 0.0 | 0.00 | 0.00 | 0.00 | 54 | 1018.0 |
| 20260503193452 | 54 | 210 | 6.0 | 0.0 | 0.00 | 0.00 | 0.00 | 54 | 1018.0 |
| 20260503191832 | 55 | 230 | 5.0 | 0.0 | 0.00 | 0.00 | 0.00 | 51 | 1018.0 |
| 20260503190332 | 55 | 230 | 5.0 | 0.0 | 0.00 | 0.00 | 0.00 | 51 | 1018.0 |
| 20260503184950 | 61 | 230 | 6.0 | 0.0 | 0.00 | 0.00 | 0.00 | 42 | 1018.0 |
| 20260503183332 | 61 | 230 | 6.0 | 0.0 | 0.00 | 0.00 | 0.00 | 42 | 1018.0 |
| 20260503181832 | 59 | 250 | 6.0 | 0.0 | 0.00 | 0.00 | 0.00 | 45 | 1018.0 |
| 20260503180332 | 59 | 250 | 6.0 | 0.0 | 0.00 | 0.00 | 0.00 | 45 | 1018.0 |
| 20260503174852 | 63 | 250 | 5.0 | 0.0 | 0.00 | 0.00 | 0.00 | 39 | 1018.0 |